Location: Melbourne
(37.8170°S, 144.9670°E)
Time: 14:01:22
(UTC+10:00)

ERBS - Visible Passes

Search period start: 01 October 2014 00:00
Search period end: 11 October 2014 01:00
Orbit: 463 x 490 km, 57.0° (Epoch: 30 September)

Date Brightness Start Highest point End Pass type
(mag) Time Alt. Az. Time Alt. Az. Time Alt. Az.
08 Oct 5.4 22:09:54 10° SSW 22:10:45 14° S 22:10:45 14° S visible
09 Oct 4.9 21:41:04 10° SSW 21:42:50 17° SSE 21:42:50 17° SSE visible
10 Oct 4.6 21:12:14 10° S 21:14:48 17° SE 21:14:56 17° SE visible
10 Oct 6.0 22:48:57 10° SW 22:49:05 11° SW 22:49:05 11° SW visible
